Time,TemperatureF,DewpointF,PressureIn,WindDirection,WindDirectionDegrees,WindSpeedMPH,WindSpeedGustMPH,Humidity,HourlyPrecipIn,Conditions,Clouds,dailyrainin,SoftwareType,DateUTC
2013-02-10 00:01:00,31.9,26.4,29.84,North,360,1.0,2.0,80,0.00,,,0.00,HR-IXPWINDi_r2_v1.2.,2013-02-10 07:01:00,
2013-02-10 00:06:00,31.8,26.3,29.84,NNE,14,1.0,2.0,80,0.00,,,0.00,HR-IXPWINDi_r2_v1.2.,2013-02-10 07:06:00,
2013-02-10 00:12:00,31.7,26.2,29.84,NNE,24,3.0,3.0,80,0.00,,,0.00,HR-IXPWINDi_r2_v1.2.,2013-02-10 07:12:00,
2013-02-10 00:17:00,31.6,26.7,29.85,NE,43,1.0,3.0,82,0.00,,,0.00,HR-IXPWINDi_r2_v1.2.,2013-02-10 07:17:00,
2013-02-10 00:22:00,31.4,26.5,29.85,NNE,23,0.0,3.0,82,0.00,,,0.00,HR-IXPWINDi_r2_v1.2.,2013-02-10 07:22:00,
2013-02-10 00:27:00,31.3,26.7,29.85,NE,42,0.0,2.0,83,0.00,,,0.00,HR-IXPWINDi_r2_v1.2.,2013-02-10 07:27:00,
2013-02-10 00:32:00,31.2,26.6,29.85,NE,42,0.0,1.0,83,0.00,,,0.00,HR-IXPWINDi_r2_v1.2.,2013-02-10 07:32:00,
2013-02-10 00:37:00,31.2,26.9,29.85,NE,43,0.0,1.0,84,0.00,,,0.00,HR-IXPWINDi_r2_v1.2.,2013-02-10 07:37:00,
2013-02-10 00:42:00,31.2,26.9,29.85,NE,42,0.0,1.0,84,0.00,,,0.00,HR-IXPWINDi_r2_v1.2.,2013-02-10 07:42:00,
2013-02-10 00:48:00,31.1,26.8,29.85,NE,42,0.0,0.0,84,0.00,,,0.00,HR-IXPWINDi_r2_v1.2.,2013-02-10 07:48:00,
2013-02-10 00:53:00,31.1,27.1,29.86,ENE,68,0.0,0.0,85,0.00,,,0.00,HR-IXPWINDi_r2_v1.2.,2013-02-10 07:53:00,
2013-02-10 00:58:00,31.1,27.1,29.86,ENE,65,0.0,0.0,85,0.00,,,0.00,HR-IXPWINDi_r2_v1.2.,2013-02-10 07:58:00,
2013-02-10 01:04:00,31.1,27.1,29.86,ENE,71,0.0,0.0,85,0.00,,,0.00,HR-IXPWINDi_r2_v1.2.,2013-02-10 08:04:00,
2013-02-10 01:09:00,31.2,27.2,29.86,WSW,238,0.0,0.0,85,0.00,,,0.00,HR-IXPWINDi_r2_v1.2.,2013-02-10 08:09:00,
2013-02-10 01:14:00,31.2,27.2,29.86,WSW,238,0.0,0.0,85,0.00,,,0.00,HR-IXPWINDi_r2_v1.2.,2013-02-10 08:14:00,
2013-02-10 01:19:00,31.3,27.3,29.86,WSW,239,0.0,0.0,85,0.00,,,0.00,HR-IXPWINDi_r2_v1.2.,2013-02-10 08:19:00,
2013-02-10 01:25:00,31.3,27.0,29.86,WSW,239,0.0,0.0,84,0.00,,,0.00,HR-IXPWINDi_r2_v1.2.,2013-02-10 08:25:00,
2013-02-10 01:30:00,31.3,27.3,29.86,NNW,330,0.0,0.0,85,0.00,,,0.00,HR-IXPWINDi_r2_v1.2.,2013-02-10 08:30:00,
2013-02-10 01:35:00,31.3,27.0,29.86,NNW,330,0.0,0.0,84,0.00,,,0.00,HR-IXPWINDi_r2_v1.2.,2013-02-10 08:35:00,
2013-02-10 01:40:00,31.3,27.3,29.86,ENE,57,0.0,0.0,85,0.00,,,0.00,HR-IXPWINDi_r2_v1.2.,2013-02-10 08:40:00,
2013-02-10 01:45:00,31.2,27.2,29.86,ENE,57,0.0,0.0,85,0.00,,,0.00,HR-IXPWINDi_r2_v1.2.,2013-02-10 08:45:00,
2013-02-10 01:51:00,31.1,27.1,29.87,ENE,70,0.0,0.0,85,0.00,,,0.00,HR-IXPWINDi_r2_v1.2.,2013-02-10 08:51:00,
2013-02-10 01:56:00,30.9,27.2,29.86,ENE,77,2.0,3.0,86,0.00,,,0.00,HR-IXPWINDi_r2_v1.2.,2013-02-10 08:56:00,
2013-02-10 02:01:00,30.7,27.0,29.87,ENE,74,0.0,3.0,86,0.00,,,0.00,HR-IXPWINDi_r2_v1.2.,2013-02-10 09:01:00,
2013-02-10 02:06:00,30.5,27.1,29.87,ENE,70,1.0,3.0,87,0.00,,,0.00,HR-IXPWINDi_r2_v1.2.,2013-02-10 09:06:00,
2013-02-10 02:12:00,30.3,26.9,29.87,ENE,72,1.0,2.0,87,0.00,,,0.00,HR-IXPWINDi_r2_v1.2.,2013-02-10 09:12:00,
2013-02-10 02:17:00,30.1,27.0,29.87,ENE,72,0.0,2.0,88,0.00,,,0.00,HR-IXPWINDi_r2_v1.2.,2013-02-10 09:17:00,
2013-02-10 02:22:00,29.9,26.8,29.87,ENE,72,0.0,1.0,88,0.00,,,0.00,HR-IXPWINDi_r2_v1.2.,2013-02-10 09:22:00,
2013-02-10 02:27:00,29.6,26.5,29.87,ENE,72,0.0,0.0,88,0.00,,,0.00,HR-IXPWINDi_r2_v1.2.,2013-02-10 09:27:00,
2013-02-10 02:32:00,29.4,26.5,29.87,ENE,72,0.0,0.0,89,0.00,,,0.00,HR-IXPWINDi_r2_v1.2.,2013-02-10 09:32:00,
2013-02-10 02:38:00,29.3,26.4,29.87,ENE,72,0.0,0.0,89,0.00,,,0.00,HR-IXPWINDi_r2_v1.2.,2013-02-10 09:38:00,
2013-02-10 02:43:00,29.2,26.6,29.87,ENE,72,0.0,0.0,90,0.00,,,0.00,HR-IXPWINDi_r2_v1.2.,2013-02-10 09:43:00,
2013-02-10 02:48:00,29.1,26.5,29.87,ENE,72,0.0,0.0,90,0.00,,,0.00,HR-IXPWINDi_r2_v1.2.,2013-02-10 09:48:00,
2013-02-10 02:53:00,29.1,26.5,29.88,ENE,72,0.0,0.0,90,0.00,,,0.00,HR-IXPWINDi_r2_v1.2.,2013-02-10 09:53:00,
2013-02-10 02:58:00,29.2,26.6,29.88,ENE,72,0.0,0.0,90,0.00,,,0.00,HR-IXPWINDi_r2_v1.2.,2013-02-10 09:58:00,
2013-02-10 03:03:00,29.2,26.6,29.88,ENE,72,0.0,0.0,90,0.00,,,0.00,HR-IXPWINDi_r2_v1.2.,2013-02-10 10:03:00,
2013-02-10 03:08:00,29.4,26.8,29.88,ENE,72,0.0,0.0,90,0.00,,,0.00,HR-IXPWINDi_r2_v1.2.,2013-02-10 10:08:00,
2013-02-10 03:14:00,29.5,26.9,29.88,ENE,72,0.0,0.0,90,0.00,,,0.00,HR-IXPWINDi_r2_v1.2.,2013-02-10 10:14:00,
2013-02-10 03:19:00,29.6,27.0,29.88,ENE,72,0.0,0.0,90,0.00,,,0.00,HR-IXPWINDi_r2_v1.2.,2013-02-10 10:19:00,
2013-02-10 03:24:00,29.7,27.1,29.88,ENE,72,0.0,0.0,90,0.00,,,0.00,HR-IXPWINDi_r2_v1.2.,2013-02-10 10:24:00,
2013-02-10 03:29:00,29.7,27.1,29.88,ENE,72,0.0,0.0,90,0.00,,,0.00,HR-IXPWINDi_r2_v1.2.,2013-02-10 10:29:00,
2013-02-10 03:34:00,29.8,27.2,29.88,ENE,72,0.0,0.0,90,0.00,,,0.00,HR-IXPWINDi_r2_v1.2.,2013-02-10 10:34:00,
2013-02-10 03:40:00,29.7,27.1,29.88,ENE,72,0.0,0.0,90,0.00,,,0.00,HR-IXPWINDi_r2_v1.2.,2013-02-10 10:40:00,
2013-02-10 03:45:00,29.7,27.4,29.87,East,80,0.0,0.0,91,0.00,,,0.00,HR-IXPWINDi_r2_v1.2.,2013-02-10 10:45:00,
2013-02-10 03:50:00,29.7,27.4,29.87,ESE,106,0.0,0.0,91,0.00,,,0.00,HR-IXPWINDi_r2_v1.2.,2013-02-10 10:50:00,
2013-02-10 03:55:00,29.7,27.4,29.87,ESE,115,0.0,0.0,91,0.00,,,0.00,HR-IXPWINDi_r2_v1.2.,2013-02-10 10:55:00,
2013-02-10 04:00:00,29.7,27.4,29.87,SSE,155,0.0,2.0,91,0.00,,,0.00,HR-IXPWINDi_r2_v1.2.,2013-02-10 11:00:00,
2013-02-10 04:05:00,29.7,27.4,29.87,SSE,154,1.0,2.0,91,0.00,,,0.00,HR-IXPWINDi_r2_v1.2.,2013-02-10 11:05:00,
2013-02-10 04:11:00,29.7,27.4,29.88,SSE,160,1.0,2.0,91,0.00,,,0.00,HR-IXPWINDi_r2_v1.2.,2013-02-10 11:11:00,
2013-02-10 04:16:00,29.7,27.4,29.88,SSW,194,0.0,2.0,91,0.00,,,0.00,HR-IXPWINDi_r2_v1.2.,2013-02-10 11:16:00,
2013-02-10 04:21:00,29.7,27.6,29.88,SW,224,0.0,2.0,92,0.00,,,0.00,HR-IXPWINDi_r2_v1.2.,2013-02-10 11:21:00,
2013-02-10 04:26:00,29.8,27.7,29.88,SW,236,0.0,0.0,92,0.00,,,0.00,HR-IXPWINDi_r2_v1.2.,2013-02-10 11:26:00,
2013-02-10 04:31:00,29.7,27.6,29.88,SW,214,0.0,0.0,92,0.00,,,0.00,HR-IXPWINDi_r2_v1.2.,2013-02-10 11:31:00,
2013-02-10 04:36:00,29.8,27.7,29.88,SW,216,0.0,0.0,92,0.00,,,0.00,HR-IXPWINDi_r2_v1.2.,2013-02-10 11:36:00,
2013-02-10 04:41:00,29.8,27.7,29.89,SW,235,0.0,0.0,92,0.00,,,0.00,HR-IXPWINDi_r2_v1.2.,2013-02-10 11:41:00,
2013-02-10 04:47:00,29.8,28.0,29.89,SW,235,0.0,0.0,93,0.00,,,0.00,HR-IXPWINDi_r2_v1.2.,2013-02-10 11:47:00,
2013-02-10 04:52:00,29.8,28.0,29.89,SW,235,0.0,0.0,93,0.00,,,0.00,HR-IXPWINDi_r2_v1.2.,2013-02-10 11:52:00,
2013-02-10 04:57:00,29.8,28.0,29.89,NNE,33,0.0,0.0,93,0.00,,,0.00,HR-IXPWINDi_r2_v1.2.,2013-02-10 11:57:00,
2013-02-10 05:02:00,29.8,28.0,29.89,NNE,32,0.0,0.0,93,0.00,,,0.00,HR-IXPWINDi_r2_v1.2.,2013-02-10 12:02:00,
2013-02-10 05:07:00,29.8,28.0,29.89,NNE,32,0.0,0.0,93,0.00,,,0.00,HR-IXPWINDi_r2_v1.2.,2013-02-10 12:07:00,
2013-02-10 05:12:00,29.8,28.0,29.89,NNE,33,0.0,0.0,93,0.00,,,0.00,HR-IXPWINDi_r2_v1.2.,2013-02-10 12:12:00,
2013-02-10 05:17:00,29.7,27.9,29.89,ENE,65,0.0,0.0,93,0.00,,,0.00,HR-IXPWINDi_r2_v1.2.,2013-02-10 12:17:00,
2013-02-10 05:22:00,29.6,27.8,29.89,ENE,76,0.0,0.0,93,0.00,,,0.00,HR-IXPWINDi_r2_v1.2.,2013-02-10 12:22:00,
2013-02-10 05:28:00,29.4,27.6,29.89,ENE,77,0.0,0.0,93,0.00,,,0.00,HR-IXPWINDi_r2_v1.2.,2013-02-10 12:28:00,
2013-02-10 05:33:00,29.3,27.5,29.89,ENE,77,0.0,0.0,93,0.00,,,0.00,HR-IXPWINDi_r2_v1.2.,2013-02-10 12:33:00,
2013-02-10 05:38:00,29.1,27.3,29.90,ENE,77,0.0,0.0,93,0.00,,,0.00,HR-IXPWINDi_r2_v1.2.,2013-02-10 12:38:00,
2013-02-10 05:43:00,28.8,27.0,29.90,ENE,76,0.0,0.0,93,0.00,,,0.00,HR-IXPWINDi_r2_v1.2.,2013-02-10 12:43:00,
2013-02-10 05:48:00,28.5,26.7,29.90,ENE,76,0.0,0.0,93,0.00,,,0.00,HR-IXPWINDi_r2_v1.2.,2013-02-10 12:48:00,
2013-02-10 05:53:00,28.5,26.7,29.90,ENE,76,0.0,0.0,93,0.00,,,0.00,HR-IXPWINDi_r2_v1.2.,2013-02-10 12:53:00,
2013-02-10 05:59:00,28.5,26.7,29.90,ENE,77,0.0,0.0,93,0.00,,,0.00,HR-IXPWINDi_r2_v1.2.,2013-02-10 12:59:00,
2013-02-10 06:04:00,28.5,27.0,29.90,ENE,76,0.0,0.0,94,0.00,,,0.00,HR-IXPWINDi_r2_v1.2.,2013-02-10 13:04:00,
2013-02-10 06:09:00,28.5,27.0,29.90,ENE,76,0.0,0.0,94,0.00,,,0.00,HR-IXPWINDi_r2_v1.2.,2013-02-10 13:09:00,
2013-02-10 06:14:00,28.6,27.1,29.90,ENE,76,0.0,0.0,94,0.00,,,0.00,HR-IXPWINDi_r2_v1.2.,2013-02-10 13:14:00,
2013-02-10 06:20:00,28.6,27.1,29.91,ENE,76,0.0,0.0,94,0.00,,,0.00,HR-IXPWINDi_r2_v1.2.,2013-02-10 13:20:00,
2013-02-10 06:25:00,28.6,27.1,29.91,ENE,76,0.0,0.0,94,0.00,,,0.00,HR-IXPWINDi_r2_v1.2.,2013-02-10 13:25:00,
2013-02-10 06:30:00,28.4,26.9,29.91,ENE,76,0.0,0.0,94,0.00,,,0.00,HR-IXPWINDi_r2_v1.2.,2013-02-10 13:30:00,
2013-02-10 06:36:00,28.4,26.9,29.91,ENE,76,0.0,0.0,94,0.00,,,0.00,HR-IXPWINDi_r2_v1.2.,2013-02-10 13:36:00,
2013-02-10 06:41:00,28.5,27.0,29.91,East,93,0.0,0.0,94,0.00,,,0.00,HR-IXPWINDi_r2_v1.2.,2013-02-10 13:41:00,
2013-02-10 06:46:00,28.2,26.7,29.92,NW,321,0.0,0.0,94,0.00,,,0.00,HR-IXPWINDi_r2_v1.2.,2013-02-10 13:46:00,
2013-02-10 06:51:00,28.1,26.6,29.92,NNW,342,0.0,0.0,94,0.00,,,0.00,HR-IXPWINDi_r2_v1.2.,2013-02-10 13:51:00,
2013-02-10 06:56:00,27.5,25.7,29.92,WNW,290,0.0,0.0,93,0.00,,,0.00,HR-IXPWINDi_r2_v1.2.,2013-02-10 13:56:00,
2013-02-10 07:02:00,26.9,25.1,29.92,WNW,284,0.0,0.0,93,0.00,,,0.00,HR-IXPWINDi_r2_v1.2.,2013-02-10 14:02:00,
2013-02-10 07:07:00,26.7,24.9,29.92,WNW,283,0.0,0.0,93,0.00,,,0.00,HR-IXPWINDi_r2_v1.2.,2013-02-10 14:07:00,
2013-02-10 07:12:00,26.7,25.2,29.92,WNW,283,0.0,0.0,94,0.00,,,0.00,HR-IXPWINDi_r2_v1.2.,2013-02-10 14:12:00,
2013-02-10 07:17:00,26.8,25.3,29.93,WNW,283,0.0,0.0,94,0.00,,,0.00,HR-IXPWINDi_r2_v1.2.,2013-02-10 14:17:00,
2013-02-10 07:22:00,26.9,25.4,29.93,WNW,283,0.0,0.0,94,0.00,,,0.00,HR-IXPWINDi_r2_v1.2.,2013-02-10 14:22:00,
2013-02-10 07:27:00,27.1,25.6,29.93,WNW,283,0.0,0.0,94,0.00,,,0.00,HR-IXPWINDi_r2_v1.2.,2013-02-10 14:27:00,
2013-02-10 07:33:00,27.2,25.7,29.93,WNW,283,0.0,0.0,94,0.00,,,0.00,HR-IXPWINDi_r2_v1.2.,2013-02-10 14:33:00,
2013-02-10 07:38:00,27.5,26.2,29.93,WNW,283,0.0,0.0,95,0.00,,,0.00,HR-IXPWINDi_r2_v1.2.,2013-02-10 14:38:00,
2013-02-10 07:43:00,27.8,26.5,29.93,WNW,283,0.0,0.0,95,0.00,,,0.00,HR-IXPWINDi_r2_v1.2.,2013-02-10 14:43:00,
2013-02-10 07:48:00,28.2,26.9,29.94,WNW,283,0.0,0.0,95,0.00,,,0.00,HR-IXPWINDi_r2_v1.2.,2013-02-10 14:48:00,
2013-02-10 07:54:00,28.5,27.2,29.94,ENE,68,0.0,0.0,95,0.00,,,0.00,HR-IXPWINDi_r2_v1.2.,2013-02-10 14:54:00,
2013-02-10 07:59:00,28.6,27.3,29.94,ENE,65,0.0,0.0,95,0.00,,,0.00,HR-IXPWINDi_r2_v1.2.,2013-02-10 14:59:00,
2013-02-10 08:04:00,28.8,27.3,29.94,ENE,65,0.0,0.0,94,0.00,,,0.00,HR-IXPWINDi_r2_v1.2.,2013-02-10 15:04:00,
2013-02-10 08:09:00,28.7,27.2,29.95,ENE,59,0.0,2.0,94,0.00,,,0.00,HR-IXPWINDi_r2_v1.2.,2013-02-10 15:09:00,
2013-02-10 08:14:00,28.6,26.8,29.95,ENE,67,0.0,2.0,93,0.00,,,0.00,HR-IXPWINDi_r2_v1.2.,2013-02-10 15:14:00,
2013-02-10 08:19:00,28.8,27.0,29.95,SSE,149,0.0,1.0,93,0.00,,,0.00,HR-IXPWINDi_r2_v1.2.,2013-02-10 15:19:00,
2013-02-10 08:24:00,28.9,26.9,29.95,ESE,113,0.0,2.0,92,0.00,,,0.00,HR-IXPWINDi_r2_v1.2.,2013-02-10 15:24:00,
2013-02-10 08:30:00,29.0,26.7,29.95,ESE,120,0.0,2.0,91,0.00,,,0.00,HR-IXPWINDi_r2_v1.2.,2013-02-10 15:30:00,
2013-02-10 08:35:00,29.1,26.8,29.96,SE,129,1.0,2.0,91,0.00,,,0.00,HR-IXPWINDi_r2_v1.2.,2013-02-10 15:35:00,
2013-02-10 08:40:00,29.3,27.0,29.96,ESE,113,1.0,2.0,91,0.00,,,0.00,HR-IXPWINDi_r2_v1.2.,2013-02-10 15:40:00,
2013-02-10 08:45:00,29.4,26.8,29.96,ESE,117,0.0,2.0,90,0.00,,,0.00,HR-IXPWINDi_r2_v1.2.,2013-02-10 15:45:00,
2013-02-10 08:51:00,29.7,26.8,29.96,SE,127,0.0,2.0,89,0.00,,,0.00,HR-IXPWINDi_r2_v1.2.,2013-02-10 15:51:00,
2013-02-10 08:56:00,30.0,26.9,29.96,East,86,4.0,4.0,88,0.00,,,0.00,HR-IXPWINDi_r2_v1.2.,2013-02-10 15:56:00,
2013-02-10 09:01:00,30.1,27.0,29.96,ESE,112,1.0,5.0,88,0.00,,,0.00,HR-IXPWINDi_r2_v1.2.,2013-02-10 16:01:00,
2013-02-10 09:06:00,30.4,26.7,29.96,NE,37,3.0,5.0,86,0.00,,,0.00,HR-IXPWINDi_r2_v1.2.,2013-02-10 16:06:00,
2013-02-10 09:12:00,30.3,26.3,29.96,ENE,71,0.0,5.0,85,0.00,,,0.00,HR-IXPWINDi_r2_v1.2.,2013-02-10 16:12:00,
2013-02-10 09:17:00,30.5,26.2,29.97,East,88,2.0,4.0,84,0.00,,,0.00,HR-IXPWINDi_r2_v1.2.,2013-02-10 16:17:00,
2013-02-10 09:22:00,31.0,26.7,29.97,East,80,0.0,3.0,84,0.00,,,0.00,HR-IXPWINDi_r2_v1.2.,2013-02-10 16:22:00,
2013-02-10 09:27:00,31.8,27.5,29.97,SSE,153,0.0,3.0,84,0.00,,,0.00,HR-IXPWINDi_r2_v1.2.,2013-02-10 16:27:00,
2013-02-10 09:32:00,32.5,27.9,29.97,SSW,205,0.0,2.0,83,0.00,,,0.00,HR-IXPWINDi_r2_v1.2.,2013-02-10 16:32:00,
2013-02-10 09:38:00,32.3,27.4,29.97,ESE,102,0.0,0.0,82,0.00,,,0.00,HR-IXPWINDi_r2_v1.2.,2013-02-10 16:38:00,
2013-02-10 09:43:00,32.2,27.0,29.97,ENE,61,2.0,3.0,81,0.00,,,0.00,HR-IXPWINDi_r2_v1.2.,2013-02-10 16:43:00,
2013-02-10 09:48:00,31.6,27.0,29.97,ESE,123,0.0,3.0,83,0.00,,,0.00,HR-IXPWINDi_r2_v1.2.,2013-02-10 16:48:00,
2013-02-10 09:53:00,31.4,26.5,29.97,ENE,76,3.0,3.0,82,0.00,,,0.00,HR-IXPWINDi_r2_v1.2.,2013-02-10 16:53:00,
2013-02-10 09:58:00,31.0,26.1,29.97,ENE,58,1.0,5.0,82,0.00,,,0.00,HR-IXPWINDi_r2_v1.2.,2013-02-10 16:58:00,
2013-02-10 10:04:00,31.2,26.6,29.97,East,81,1.0,5.0,83,0.00,,,0.00,HR-IXPWINDi_r2_v1.2.,2013-02-10 17:04:00,
2013-02-10 10:09:00,31.4,26.5,29.97,ESE,102,1.0,3.0,82,0.00,,,0.00,HR-IXPWINDi_r2_v1.2.,2013-02-10 17:09:00,
2013-02-10 10:14:00,31.6,26.4,29.98,ESE,116,0.0,3.0,81,0.00,,,0.00,HR-IXPWINDi_r2_v1.2.,2013-02-10 17:14:00,
2013-02-10 10:19:00,31.7,26.5,29.98,SE,141,1.0,3.0,81,0.00,,,0.00,HR-IXPWINDi_r2_v1.2.,2013-02-10 17:19:00,
2013-02-10 10:24:00,31.8,26.0,29.98,ESE,113,2.0,3.0,79,0.00,,,0.00,HR-IXPWINDi_r2_v1.2.,2013-02-10 17:24:00,
2013-02-10 10:30:00,31.7,25.9,29.98,ESE,102,0.0,3.0,79,0.00,,,0.00,HR-IXPWINDi_r2_v1.2.,2013-02-10 17:30:00,
2013-02-10 10:35:00,32.2,26.7,29.98,East,82,0.0,3.0,80,0.00,,,0.00,HR-IXPWINDi_r2_v1.2.,2013-02-10 17:35:00,
2013-02-10 10:40:00,33.0,27.8,29.98,SSW,200,1.0,3.0,81,0.00,,,0.00,HR-IXPWINDi_r2_v1.2.,2013-02-10 17:40:00,
2013-02-10 10:45:00,33.4,27.3,29.98,WSW,242,3.0,4.0,78,0.00,,,0.00,HR-IXPWINDi_r2_v1.2.,2013-02-10 17:45:00,
2013-02-10 10:51:00,33.3,27.2,29.98,SE,139,1.0,4.0,78,0.00,,,0.00,HR-IXPWINDi_r2_v1.2.,2013-02-10 17:51:00,
2013-02-10 10:56:00,33.4,27.3,29.98,NE,44,1.0,3.0,78,0.00,,,0.00,HR-IXPWINDi_r2_v1.2.,2013-02-10 17:56:00,
2013-02-10 11:01:00,33.7,27.6,29.98,ESE,108,0.0,4.0,78,0.00,,,0.00,HR-IXPWINDi_r2_v1.2.,2013-02-10 18:01:00,
2013-02-10 11:06:00,34.3,28.1,29.98,WSW,238,3.0,4.0,78,0.00,,,0.00,HR-IXPWINDi_r2_v1.2.,2013-02-10 18:06:00,
2013-02-10 11:12:00,34.8,28.3,29.98,SSE,155,2.0,4.0,77,0.00,,,0.00,HR-IXPWINDi_r2_v1.2.,2013-02-10 18:12:00,
2013-02-10 11:17:00,34.8,27.7,29.98,ENE,77,2.0,5.0,75,0.00,,,0.00,HR-IXPWINDi_r2_v1.2.,2013-02-10 18:17:00,
2013-02-10 11:22:00,34.7,29.1,29.98,NNE,32,3.0,5.0,80,0.00,,,0.00,HR-IXPWINDi_r2_v1.2.,2013-02-10 18:22:00,
2013-02-10 11:27:00,34.6,28.4,29.98,West,280,1.0,5.0,78,0.00,,,0.00,HR-IXPWINDi_r2_v1.2.,2013-02-10 18:27:00,
2013-02-10 11:32:00,35.2,28.7,29.97,SW,214,1.0,4.0,77,0.00,,,0.00,HR-IXPWINDi_r2_v1.2.,2013-02-10 18:32:00,
2013-02-10 11:37:00,35.3,28.2,29.97,SSW,204,3.0,5.0,75,0.00,,,0.00,HR-IXPWINDi_r2_v1.2.,2013-02-10 18:37:00,
2013-02-10 11:42:00,35.9,29.4,29.97,WNW,285,2.0,5.0,77,0.00,,,0.00,HR-IXPWINDi_r2_v1.2.,2013-02-10 18:42:00,
2013-02-10 11:48:00,35.8,28.0,29.97,South,188,0.0,6.0,73,0.00,,,0.00,HR-IXPWINDi_r2_v1.2.,2013-02-10 18:48:00,
2013-02-10 11:53:00,36.0,28.5,29.97,SSW,200,3.0,6.0,74,0.00,,,0.00,HR-IXPWINDi_r2_v1.2.,2013-02-10 18:53:00,
2013-02-10 11:58:00,36.0,28.5,29.97,SSW,211,1.0,5.0,74,0.00,,,0.00,HR-IXPWINDi_r2_v1.2.,2013-02-10 18:58:00,
2013-02-10 12:03:00,35.9,28.7,29.96,SW,231,0.0,3.0,75,0.00,,,0.00,HR-IXPWINDi_r2_v1.2.,2013-02-10 19:03:00,
2013-02-10 12:09:00,35.9,28.4,29.96,West,274,2.0,3.0,74,0.00,,,0.01,HR-IXPWINDi_r2_v1.2.,2013-02-10 19:09:00,
2013-02-10 12:14:00,35.3,27.2,29.96,WSW,252,1.0,5.0,72,0.00,,,0.01,HR-IXPWINDi_r2_v1.2.,2013-02-10 19:14:00,
2013-02-10 12:19:00,35.6,27.8,29.95,WNW,300,0.0,5.0,73,0.00,,,0.01,HR-IXPWINDi_r2_v1.2.,2013-02-10 19:19:00,
2013-02-10 12:24:00,35.7,27.5,29.95,North,359,1.0,3.0,72,0.00,,,0.01,HR-IXPWINDi_r2_v1.2.,2013-02-10 19:24:00,
2013-02-10 12:30:00,35.6,27.1,29.95,SSW,208,0.0,3.0,71,0.00,,,0.01,HR-IXPWINDi_r2_v1.2.,2013-02-10 19:30:00,
2013-02-10 12:35:00,35.9,27.4,29.95,North,10,1.0,4.0,71,0.00,,,0.01,HR-IXPWINDi_r2_v1.2.,2013-02-10 19:35:00,
2013-02-10 12:40:00,35.9,27.1,29.94,NNE,18,3.0,6.0,70,0.00,,,0.01,HR-IXPWINDi_r2_v1.2.,2013-02-10 19:40:00,
2013-02-10 12:45:00,35.7,27.9,29.94,North,6,3.0,7.0,73,0.00,,,0.01,HR-IXPWINDi_r2_v1.2.,2013-02-10 19:45:00,
2013-02-10 12:50:00,35.8,28.3,29.94,East,94,4.0,7.0,74,0.00,,,0.01,HR-IXPWINDi_r2_v1.2.,2013-02-10 19:50:00,
2013-02-10 12:56:00,35.6,27.8,29.94,NW,305,3.0,6.0,73,0.00,,,0.01,HR-IXPWINDi_r2_v1.2.,2013-02-10 19:56:00,
2013-02-10 13:01:00,35.5,27.7,29.94,North,1,3.0,5.0,73,0.00,,,0.01,HR-IXPWINDi_r2_v1.2.,2013-02-10 20:01:00,
2013-02-10 13:06:00,35.4,27.6,29.94,NW,326,3.0,5.0,73,0.00,,,0.01,HR-IXPWINDi_r2_v1.2.,2013-02-10 20:06:00,
2013-02-10 13:11:00,35.4,26.2,29.93,NNE,27,1.0,5.0,69,0.00,,,0.01,HR-IXPWINDi_r2_v1.2.,2013-02-10 20:11:00,
2013-02-10 13:16:00,35.3,25.4,29.93,North,356,2.0,5.0,67,0.00,,,0.01,HR-IXPWINDi_r2_v1.2.,2013-02-10 20:16:00,
2013-02-10 13:21:00,35.3,25.1,29.93,NNE,23,2.0,4.0,66,0.00,,,0.01,HR-IXPWINDi_r2_v1.2.,2013-02-10 20:21:00,
2013-02-10 13:27:00,35.3,23.6,29.93,NNE,24,2.0,4.0,62,0.00,,,0.01,HR-IXPWINDi_r2_v1.2.,2013-02-10 20:27:00,
2013-02-10 13:32:00,35.5,23.4,29.93,NW,304,1.0,4.0,61,0.00,,,0.01,HR-IXPWINDi_r2_v1.2.,2013-02-10 20:32:00,
2013-02-10 13:37:00,35.5,23.8,29.93,WNW,298,1.0,3.0,62,0.00,,,0.01,HR-IXPWINDi_r2_v1.2.,2013-02-10 20:37:00,
2013-02-10 13:42:00,35.4,23.7,29.93,WNW,287,2.0,2.0,62,0.00,,,0.01,HR-IXPWINDi_r2_v1.2.,2013-02-10 20:42:00,
2013-02-10 13:48:00,35.4,23.3,29.93,WNW,295,1.0,2.0,61,0.00,,,0.01,HR-IXPWINDi_r2_v1.2.,2013-02-10 20:48:00,
2013-02-10 13:53:00,35.9,24.1,29.93,NE,40,1.0,2.0,62,0.00,,,0.01,HR-IXPWINDi_r2_v1.2.,2013-02-10 20:53:00,
2013-02-10 13:58:00,36.7,24.5,29.93,NW,311,4.0,4.0,61,0.00,,,0.01,HR-IXPWINDi_r2_v1.2.,2013-02-10 20:58:00,
2013-02-10 14:04:00,37.1,24.1,29.92,SSW,208,1.0,4.0,59,0.00,,,0.01,HR-IXPWINDi_r2_v1.2.,2013-02-10 21:04:00,
2013-02-10 14:09:00,37.5,24.1,29.92,WNW,290,3.0,4.0,58,0.00,,,0.01,HR-IXPWINDi_r2_v1.2.,2013-02-10 21:09:00,
2013-02-10 14:14:00,37.3,23.9,29.92,SW,233,1.0,4.0,58,0.00,,,0.01,HR-IXPWINDi_r2_v1.2.,2013-02-10 21:14:00,
2013-02-10 14:19:00,37.6,24.2,29.92,SW,215,0.0,3.0,58,0.00,,,0.01,HR-IXPWINDi_r2_v1.2.,2013-02-10 21:19:00,
2013-02-10 14:25:00,37.8,23.9,29.92,SW,217,5.0,5.0,57,0.00,,,0.01,HR-IXPWINDi_r2_v1.2.,2013-02-10 21:25:00,
2013-02-10 14:30:00,38.0,24.1,29.92,West,272,2.0,6.0,57,0.00,,,0.01,HR-IXPWINDi_r2_v1.2.,2013-02-10 21:30:00,
2013-02-10 14:35:00,38.4,24.9,29.92,WSW,245,2.0,6.0,58,0.00,,,0.01,HR-IXPWINDi_r2_v1.2.,2013-02-10 21:35:00,
2013-02-10 14:41:00,37.9,24.0,29.92,WSW,240,4.0,7.0,57,0.00,,,0.01,HR-IXPWINDi_r2_v1.2.,2013-02-10 21:41:00,
2013-02-10 14:46:00,37.8,25.2,29.92,WSW,245,1.0,7.0,60,0.00,,,0.01,HR-IXPWINDi_r2_v1.2.,2013-02-10 21:46:00,
2013-02-10 14:51:00,37.7,24.2,29.92,SW,231,4.0,6.0,58,0.00,,,0.01,HR-IXPWINDi_r2_v1.2.,2013-02-10 21:51:00,
2013-02-10 14:56:00,37.6,24.2,29.92,WSW,248,2.0,6.0,58,0.00,,,0.01,HR-IXPWINDi_r2_v1.2.,2013-02-10 21:56:00,
2013-02-10 15:02:00,37.3,24.3,29.92,WNW,285,2.0,6.0,59,0.00,,,0.01,HR-IXPWINDi_r2_v1.2.,2013-02-10 22:02:00,
2013-02-10 15:07:00,37.0,23.6,29.92,West,276,1.0,6.0,58,0.00,,,0.01,HR-IXPWINDi_r2_v1.2.,2013-02-10 22:07:00,
2013-02-10 15:12:00,36.8,24.2,29.93,West,267,1.0,6.0,60,0.00,,,0.01,HR-IXPWINDi_r2_v1.2.,2013-02-10 22:12:00,
2013-02-10 15:17:00,36.7,23.7,29.93,WNW,286,1.0,5.0,59,0.00,,,0.01,HR-IXPWINDi_r2_v1.2.,2013-02-10 22:17:00,
2013-02-10 15:23:00,36.7,24.1,29.93,WNW,290,1.0,4.0,60,0.00,,,0.01,HR-IXPWINDi_r2_v1.2.,2013-02-10 22:23:00,
2013-02-10 15:28:00,36.8,24.2,29.93,West,266,3.0,4.0,60,0.00,,,0.01,HR-IXPWINDi_r2_v1.2.,2013-02-10 22:28:00,
2013-02-10 15:33:00,36.7,24.5,29.93,SSW,212,1.0,4.0,61,0.00,,,0.01,HR-IXPWINDi_r2_v1.2.,2013-02-10 22:33:00,
2013-02-10 15:38:00,37.1,24.5,29.93,West,267,2.0,4.0,60,0.00,,,0.01,HR-IXPWINDi_r2_v1.2.,2013-02-10 22:38:00,
2013-02-10 15:44:00,37.2,24.2,29.94,WSW,242,3.0,3.0,59,0.00,,,0.01,HR-IXPWINDi_r2_v1.2.,2013-02-10 22:44:00,
2013-02-10 15:49:00,37.1,24.1,29.94,SW,228,3.0,4.0,59,0.00,,,0.01,HR-IXPWINDi_r2_v1.2.,2013-02-10 22:49:00,
2013-02-10 15:54:00,36.9,23.9,29.94,SSW,211,1.0,4.0,59,0.00,,,0.01,HR-IXPWINDi_r2_v1.2.,2013-02-10 22:54:00,
2013-02-10 15:59:00,36.8,24.2,29.94,SW,233,3.0,4.0,60,0.00,,,0.01,HR-IXPWINDi_r2_v1.2.,2013-02-10 22:59:00,
2013-02-10 16:05:00,36.4,26.1,29.94,SW,231,7.0,9.0,66,0.00,,,0.01,HR-IXPWINDi_r2_v1.2.,2013-02-10 23:05:00,
2013-02-10 16:10:00,35.7,26.2,29.95,SW,222,4.0,10.0,68,0.00,,,0.01,HR-IXPWINDi_r2_v1.2.,2013-02-10 23:10:00,
2013-02-10 16:15:00,35.1,26.3,29.94,SW,228,8.0,10.0,70,0.00,,,0.01,HR-IXPWINDi_r2_v1.2.,2013-02-10 23:15:00,
2013-02-10 16:20:00,34.6,26.8,29.95,SW,226,5.0,10.0,73,0.00,,,0.01,HR-IXPWINDi_r2_v1.2.,2013-02-10 23:20:00,
2013-02-10 16:25:00,34.4,27.0,29.95,WSW,252,4.0,9.0,74,0.00,,,0.01,HR-IXPWINDi_r2_v1.2.,2013-02-10 23:25:00,
2013-02-10 16:31:00,34.5,26.7,29.95,WSW,241,5.0,9.0,73,0.00,,,0.01,HR-IXPWINDi_r2_v1.2.,2013-02-10 23:31:00,
2013-02-10 16:36:00,34.6,26.8,29.95,SW,233,2.0,9.0,73,0.00,,,0.01,HR-IXPWINDi_r2_v1.2.,2013-02-10 23:36:00,
2013-02-10 16:41:00,34.9,27.1,29.94,SSW,204,1.0,7.0,73,0.00,,,0.01,HR-IXPWINDi_r2_v1.2.,2013-02-10 23:41:00,
2013-02-10 16:46:00,35.5,27.0,29.94,West,278,2.0,5.0,71,0.00,,,0.01,HR-IXPWINDi_r2_v1.2.,2013-02-10 23:46:00,
2013-02-10 16:52:00,35.7,26.2,29.95,SW,215,2.0,4.0,68,0.00,,,0.01,HR-IXPWINDi_r2_v1.2.,2013-02-10 23:52:00,
2013-02-10 16:57:00,35.7,26.5,29.95,SW,231,2.0,4.0,69,0.00,,,0.01,HR-IXPWINDi_r2_v1.2.,2013-02-10 23:57:00,
2013-02-10 17:02:00,35.3,26.1,29.95,SW,231,4.0,6.0,69,0.00,,,0.01,HR-IXPWINDi_r2_v1.2.,2013-02-11 00:02:00,
2013-02-10 17:07:00,35.1,26.3,29.95,WSW,257,2.0,6.0,70,0.00,,,0.01,HR-IXPWINDi_r2_v1.2.,2013-02-11 00:07:00,
2013-02-10 17:12:00,35.1,26.6,29.95,WNW,291,2.0,6.0,71,0.00,,,0.01,HR-IXPWINDi_r2_v1.2.,2013-02-11 00:12:00,
2013-02-10 17:17:00,34.9,26.8,29.95,WSW,238,1.0,3.0,72,0.00,,,0.01,HR-IXPWINDi_r2_v1.2.,2013-02-11 00:17:00,
2013-02-10 17:22:00,34.8,27.0,29.96,WSW,256,1.0,4.0,73,0.00,,,0.01,HR-IXPWINDi_r2_v1.2.,2013-02-11 00:22:00,
2013-02-10 17:27:00,34.7,26.9,29.96,WSW,241,1.0,4.0,73,0.00,,,0.01,HR-IXPWINDi_r2_v1.2.,2013-02-11 00:27:00,
2013-02-10 17:32:00,34.6,26.8,29.96,WSW,248,0.0,2.0,73,0.00,,,0.01,HR-IXPWINDi_r2_v1.2.,2013-02-11 00:32:00,
2013-02-10 17:38:00,34.4,26.6,29.96,SW,235,1.0,2.0,73,0.00,,,0.01,HR-IXPWINDi_r2_v1.2.,2013-02-11 00:38:00,
2013-02-10 17:43:00,34.3,26.2,29.96,WSW,239,1.0,2.0,72,0.00,,,0.01,HR-IXPWINDi_r2_v1.2.,2013-02-11 00:43:00,
2013-02-10 17:48:00,34.2,26.4,29.96,West,269,1.0,2.0,73,0.00,,,0.01,HR-IXPWINDi_r2_v1.2.,2013-02-11 00:48:00,
2013-02-10 17:53:00,34.1,26.0,29.96,West,276,1.0,2.0,72,0.00,,,0.01,HR-IXPWINDi_r2_v1.2.,2013-02-11 00:53:00,
2013-02-10 17:58:00,34.0,25.9,29.96,West,275,1.0,2.0,72,0.00,,,0.01,HR-IXPWINDi_r2_v1.2.,2013-02-11 00:58:00,
2013-02-10 18:04:00,33.8,25.7,29.96,WSW,253,2.0,3.0,72,0.00,,,0.01,HR-IXPWINDi_r2_v1.2.,2013-02-11 01:04:00,
2013-02-10 18:09:00,33.7,25.3,29.97,WSW,245,2.0,4.0,71,0.00,,,0.01,HR-IXPWINDi_r2_v1.2.,2013-02-11 01:09:00,
2013-02-10 18:14:00,33.6,25.5,29.97,SW,224,3.0,4.0,72,0.00,,,0.01,HR-IXPWINDi_r2_v1.2.,2013-02-11 01:14:00,
2013-02-10 18:19:00,33.5,25.4,29.97,SW,228,2.0,3.0,72,0.00,,,0.01,HR-IXPWINDi_r2_v1.2.,2013-02-11 01:19:00,
2013-02-10 18:25:00,33.5,25.4,29.97,SW,219,3.0,3.0,72,0.00,,,0.01,HR-IXPWINDi_r2_v1.2.,2013-02-11 01:25:00,
2013-02-10 18:30:00,33.5,25.1,29.97,SSW,205,1.0,3.0,71,0.00,,,0.01,HR-IXPWINDi_r2_v1.2.,2013-02-11 01:30:00,
2013-02-10 18:35:00,33.5,25.1,29.97,SW,224,1.0,3.0,71,0.00,,,0.01,HR-IXPWINDi_r2_v1.2.,2013-02-11 01:35:00,
2013-02-10 18:40:00,33.5,25.1,29.98,SSW,208,2.0,3.0,71,0.00,,,0.01,HR-IXPWINDi_r2_v1.2.,2013-02-11 01:40:00,
2013-02-10 18:45:00,33.4,25.0,29.97,SSW,211,0.0,3.0,71,0.00,,,0.01,HR-IXPWINDi_r2_v1.2.,2013-02-11 01:45:00,
2013-02-10 18:50:00,33.3,24.9,29.97,SSW,211,0.0,2.0,71,0.00,,,0.01,HR-IXPWINDi_r2_v1.2.,2013-02-11 01:50:00,
2013-02-10 18:56:00,33.0,25.0,29.98,North,354,4.0,4.0,72,0.00,,,0.01,HR-IXPWINDi_r2_v1.2.,2013-02-11 01:56:00,
2013-02-10 19:01:00,32.6,25.2,29.98,North,5,3.0,6.0,74,0.00,,,0.01,HR-IXPWINDi_r2_v1.2.,2013-02-11 02:01:00,
2013-02-10 19:06:00,32.3,25.3,29.98,North,352,1.0,6.0,75,0.00,,,0.01,HR-IXPWINDi_r2_v1.2.,2013-02-11 02:06:00,
2013-02-10 19:11:00,32.2,25.2,29.98,North,360,1.0,3.0,75,0.00,,,0.01,HR-IXPWINDi_r2_v1.2.,2013-02-11 02:11:00,
2013-02-10 19:16:00,31.9,25.2,29.98,NNE,19,0.0,2.0,76,0.00,,,0.01,HR-IXPWINDi_r2_v1.2.,2013-02-11 02:16:00,
2013-02-10 19:21:00,31.7,25.0,29.98,NNE,19,0.0,2.0,76,0.00,,,0.01,HR-IXPWINDi_r2_v1.2.,2013-02-11 02:21:00,
2013-02-10 19:26:00,31.5,24.8,29.98,NNE,18,0.0,1.0,76,0.00,,,0.01,HR-IXPWINDi_r2_v1.2.,2013-02-11 02:26:00,
2013-02-10 19:31:00,31.4,25.3,29.98,NW,314,0.0,1.0,78,0.00,,,0.01,HR-IXPWINDi_r2_v1.2.,2013-02-11 02:31:00,
2013-02-10 19:37:00,31.1,25.0,29.98,NW,315,0.0,1.0,78,0.00,,,0.01,HR-IXPWINDi_r2_v1.2.,2013-02-11 02:37:00,
2013-02-10 19:42:00,30.8,24.7,29.98,NW,315,0.0,0.0,78,0.00,,,0.01,HR-IXPWINDi_r2_v1.2.,2013-02-11 02:42:00,
2013-02-10 19:47:00,30.4,24.7,29.98,NW,315,0.0,0.0,79,0.00,,,0.01,HR-IXPWINDi_r2_v1.2.,2013-02-11 02:47:00,
2013-02-10 19:52:00,30.2,24.8,29.99,NW,314,0.0,0.0,80,0.00,,,0.01,HR-IXPWINDi_r2_v1.2.,2013-02-11 02:52:00,
2013-02-10 19:57:00,30.1,24.7,29.99,NW,314,0.0,0.0,80,0.00,,,0.01,HR-IXPWINDi_r2_v1.2.,2013-02-11 02:57:00,
2013-02-10 20:03:00,30.2,25.1,29.99,NW,315,0.0,0.0,81,0.00,,,0.01,HR-IXPWINDi_r2_v1.2.,2013-02-11 03:03:00,
2013-02-10 20:08:00,30.1,25.0,29.99,SSE,161,1.0,2.0,81,0.00,,,0.01,HR-IXPWINDi_r2_v1.2.,2013-02-11 03:08:00,
2013-02-10 20:13:00,30.3,25.2,29.99,SSE,150,0.0,2.0,81,0.00,,,0.01,HR-IXPWINDi_r2_v1.2.,2013-02-11 03:13:00,
2013-02-10 20:19:00,30.4,25.3,29.99,SSE,150,0.0,1.0,81,0.00,,,0.01,HR-IXPWINDi_r2_v1.2.,2013-02-11 03:19:00,
2013-02-10 20:24:00,30.2,25.1,30.00,SSE,150,0.0,0.0,81,0.00,,,0.01,HR-IXPWINDi_r2_v1.2.,2013-02-11 03:24:00,
2013-02-10 20:29:00,30.2,25.4,30.00,SSE,149,0.0,0.0,82,0.00,,,0.01,HR-IXPWINDi_r2_v1.2.,2013-02-11 03:29:00,
2013-02-10 20:34:00,30.3,25.5,30.00,SSE,149,0.0,0.0,82,0.00,,,0.01,HR-IXPWINDi_r2_v1.2.,2013-02-11 03:34:00,
2013-02-10 20:39:00,30.1,25.3,30.00,SSE,150,0.0,0.0,82,0.00,,,0.01,HR-IXPWINDi_r2_v1.2.,2013-02-11 03:39:00,
2013-02-10 20:45:00,30.0,25.2,30.00,SSE,150,0.0,0.0,82,0.00,,,0.01,HR-IXPWINDi_r2_v1.2.,2013-02-11 03:45:00,
2013-02-10 20:50:00,30.3,25.5,30.00,SSE,150,0.0,1.0,82,0.00,,,0.01,HR-IXPWINDi_r2_v1.2.,2013-02-11 03:50:00,
2013-02-10 20:55:00,30.6,25.5,30.00,SSE,149,0.0,1.0,81,0.00,,,0.01,HR-IXPWINDi_r2_v1.2.,2013-02-11 03:55:00,
2013-02-10 21:00:00,30.8,25.4,30.00,SSE,150,0.0,1.0,80,0.00,,,0.01,HR-IXPWINDi_r2_v1.2.,2013-02-11 04:00:00,
2013-02-10 21:05:00,31.1,25.3,30.00,West,263,0.0,2.0,79,0.00,,,0.01,HR-IXPWINDi_r2_v1.2.,2013-02-11 04:05:00,
2013-02-10 21:11:00,31.2,25.7,30.01,West,274,0.0,2.0,80,0.00,,,0.01,HR-IXPWINDi_r2_v1.2.,2013-02-11 04:11:00,
2013-02-10 21:16:00,31.1,25.9,30.01,NNE,15,1.0,1.0,81,0.00,,,0.01,HR-IXPWINDi_r2_v1.2.,2013-02-11 04:16:00,
2013-02-10 21:21:00,30.9,26.0,30.01,NNE,22,1.0,2.0,82,0.00,,,0.01,HR-IXPWINDi_r2_v1.2.,2013-02-11 04:21:00,
2013-02-10 21:26:00,30.7,25.8,30.01,NE,34,0.0,2.0,82,0.00,,,0.01,HR-IXPWINDi_r2_v1.2.,2013-02-11 04:26:00,
2013-02-10 21:31:00,30.6,25.7,30.01,NE,34,0.0,2.0,82,0.00,,,0.01,HR-IXPWINDi_r2_v1.2.,2013-02-11 04:31:00,
2013-02-10 21:36:00,30.7,26.1,30.01,NE,34,0.0,1.0,83,0.00,,,0.01,HR-IXPWINDi_r2_v1.2.,2013-02-11 04:36:00,
2013-02-10 21:42:00,30.7,25.8,30.01,NE,34,0.0,0.0,82,0.00,,,0.01,HR-IXPWINDi_r2_v1.2.,2013-02-11 04:42:00,
2013-02-10 21:47:00,30.8,26.2,30.01,NNW,340,1.0,2.0,83,0.00,,,0.01,HR-IXPWINDi_r2_v1.2.,2013-02-11 04:47:00,
2013-02-10 21:52:00,30.9,26.3,30.01,East,84,2.0,3.0,83,0.00,,,0.01,HR-IXPWINDi_r2_v1.2.,2013-02-11 04:52:00,
2013-02-10 21:57:00,30.8,26.2,30.01,ENE,63,1.0,3.0,83,0.00,,,0.01,HR-IXPWINDi_r2_v1.2.,2013-02-11 04:57:00,
2013-02-10 22:06:00,30.9,26.6,30.02,ENE,71,1.0,3.0,84,0.00,,,0.01,HR-IXPWINDi_r2_v1.2.,2013-02-11 05:06:00,
2013-02-10 22:12:00,31.0,26.7,30.02,East,81,1.0,3.0,84,0.00,,,0.01,HR-IXPWINDi_r2_v1.2.,2013-02-11 05:12:00,
2013-02-10 22:17:00,31.2,26.9,30.02,East,84,3.0,3.0,84,0.00,,,0.01,HR-IXPWINDi_r2_v1.2.,2013-02-11 05:17:00,
2013-02-10 22:22:00,31.3,26.7,30.02,ENE,68,1.0,3.0,83,0.00,,,0.01,HR-IXPWINDi_r2_v1.2.,2013-02-11 05:22:00,
2013-02-10 22:27:00,31.4,26.8,30.02,ENE,65,0.0,3.0,83,0.00,,,0.01,HR-IXPWINDi_r2_v1.2.,2013-02-11 05:27:00,
2013-02-10 22:32:00,31.5,26.9,30.02,NE,43,0.0,2.0,83,0.00,,,0.01,HR-IXPWINDi_r2_v1.2.,2013-02-11 05:32:00,
2013-02-10 22:37:00,31.5,26.9,30.02,NE,43,0.0,1.0,83,0.00,,,0.01,HR-IXPWINDi_r2_v1.2.,2013-02-11 05:37:00,
2013-02-10 22:43:00,31.5,26.9,30.02,NE,43,1.0,1.0,83,0.00,,,0.01,HR-IXPWINDi_r2_v1.2.,2013-02-11 05:43:00,
2013-02-10 22:48:00,31.5,26.6,30.02,SE,143,2.0,3.0,82,0.00,,,0.01,HR-IXPWINDi_r2_v1.2.,2013-02-11 05:48:00,
2013-02-10 22:53:00,31.6,26.7,30.02,ESE,109,1.0,3.0,82,0.00,,,0.01,HR-IXPWINDi_r2_v1.2.,2013-02-11 05:53:00,
2013-02-10 22:58:00,31.6,27.0,30.02,East,89,1.0,3.0,83,0.00,,,0.01,HR-IXPWINDi_r2_v1.2.,2013-02-11 05:58:00,
2013-02-10 23:03:00,31.5,26.9,30.02,SE,124,0.0,3.0,83,0.00,,,0.01,HR-IXPWINDi_r2_v1.2.,2013-02-11 06:03:00,
2013-02-10 23:09:00,31.5,26.9,30.02,SE,130,1.0,2.0,83,0.00,,,0.01,HR-IXPWINDi_r2_v1.2.,2013-02-11 06:09:00,
2013-02-10 23:14:00,31.5,26.9,30.02,SE,131,0.0,2.0,83,0.00,,,0.01,HR-IXPWINDi_r2_v1.2.,2013-02-11 06:14:00,
2013-02-10 23:19:00,31.3,26.7,30.02,SE,131,0.0,3.0,83,0.00,,,0.01,HR-IXPWINDi_r2_v1.2.,2013-02-11 06:19:00,
2013-02-10 23:24:00,31.1,26.8,30.02,SE,139,0.0,3.0,84,0.00,,,0.01,HR-IXPWINDi_r2_v1.2.,2013-02-11 06:24:00,
2013-02-10 23:29:00,30.9,26.6,30.01,SE,139,0.0,2.0,84,0.00,,,0.01,HR-IXPWINDi_r2_v1.2.,2013-02-11 06:29:00,
2013-02-10 23:35:00,30.7,26.7,30.01,SE,138,0.0,0.0,85,0.00,,,0.01,HR-IXPWINDi_r2_v1.2.,2013-02-11 06:35:00,
2013-02-10 23:40:00,30.5,26.5,30.01,SE,138,0.0,0.0,85,0.00,,,0.01,HR-IXPWINDi_r2_v1.2.,2013-02-11 06:40:00,
2013-02-10 23:45:00,30.4,26.7,30.02,SE,139,0.0,0.0,86,0.00,,,0.01,HR-IXPWINDi_r2_v1.2.,2013-02-11 06:45:00,
2013-02-10 23:50:00,30.3,26.6,30.01,SE,139,0.0,0.0,86,0.00,,,0.01,HR-IXPWINDi_r2_v1.2.,2013-02-11 06:50:00,
2013-02-10 23:55:00,30.0,26.3,30.01,NNE,32,1.0,2.0,86,0.00,,,0.01,HR-IXPWINDi_r2_v1.2.,2013-02-11 06:55:00,